Regional Weather Roundup
Issued by NWS

Home | Current Version | Previous Version | Text Only | Print | Product List | Glossary Off
Versions: 1 2 3 4 5 6 7 8 9 10 11 12 13 14 15 16 17 18 19 20 21 22 23 24 25 26 27 28 29 30 31 32 33 34 35 36 37 38 39 40 41 42 43 44 45 46 47 48 49 50

682
ASUS43 KFSD 261802
RWRSD

WEATHER ROUNDUP FOR SOUTH DAKOTA
NATIONAL WEATHER SERVICE SIOUX FALLS SD
100 PM CDT WED JUL 26 2017

NOTE: "FAIR" INDICATES FEW OR NO CLOUDS BELOW 12,000 FEET WITH NO
SIGNIFICANT WEATHER AND/OR OBSTRUCTIONS TO VISIBILITY.


SDZ001>005-009-010-012>017-261900-
NORTHWEST AND NORTH CENTRAL SOUTH DAKOTA

CITY           SKY/WX    TMP DP  RH WIND       PRES   REMARKS
BUFFALO          N/A     86  51  29 SW6       30.11S
FAITH            N/A     82  54  37 MISG      30.15F
MOBRIDGE       SUNNY     84  61  45 N8        30.10S
$$

SDZ012>016-024>037-041>051-057-063-072>074-261900-
SOUTHWEST AND SOUTH CENTRAL SOUTH DAKOTA

CITY           SKY/WX    TMP DP  RH WIND       PRES   REMARKS
RAPID CTY ARPT CLOUDY    77  49  37 NE8       30.20S
PIERRE         PTSUNNY   84  54  35 E15G23    30.09R
CUSTER         CLOUDY    72  44  36 NE12G20   30.32S
ELLSWORTH AFB  CLOUDY    77  48  35 SE7       30.20S
PHILIP         PTSUNNY   85  57  38 E16G23    30.12S
PINE RIDGE     CLOUDY    80  59  48 NE15G22   30.16F
SPEARFISH      FAIR      77  46  33 E13       30.23F
WINNER         MOCLDY    86  65  49 NE15G24   30.07F
$$

SDZ004>011-016>023-039-040-261900-
NORTHEAST SOUTH DAKOTA

CITY           SKY/WX    TMP DP  RH WIND       PRES   REMARKS
ABERDEEN       SUNNY     82  61  48 N10       30.10S
WATERTOWN      SUNNY     77  59  53 NE13      30.09R
BROOKINGS      SUNNY     77  60  55 NE13      30.07S
SISSETON         N/A     82  62  50 N10       30.07S
$$

SDZ017-020-022-023-036>040-048>070-261900-
SOUTHEAST SOUTH DAKOTA

CITY           SKY/WX    TMP DP  RH WIND       PRES   REMARKS
SIOUX FALLS    PTSUNNY   80  70  71 NE14      30.03F
HURON          CLOUDY    81  65  58 E10       30.06F
CHAMBERLAIN    MOSUNNY   84  68  58 E12       30.07S
MITCHELL       MOSUNNY   83  70  64 NE13      30.05S
YANKTON        MOSUNNY   83  70  64 NE14      30.01S
$$

ABBREVIATIONS USED IN REMARKS
   TC - TEMPERATURE IN CELSIUS
  WCI - WIND CHILL INDEX
   HX - HEAT INDEX
  VSB - VISIBILITY





USA.gov is the U.S. government's official web portal to all federal, state and local government web resources and services.